Weather History for Kendall, FL

Change the Weather History Date:

Friday, November 8, 2013

  Actual Average Record
Temperature  
Mean Temperature 77 °F -  
Max Temperature 84 °F 82 °F 87 °F (1996)
Min Temperature 70 °F 63 °F 55 °F (2012)
Cooling Degree Days 12    
Growing Degree Days 27 (Base 50)    
Moisture  
Dew Point 70 °F    
Average Humidity 82    
Maximum Humidity 94    
Minimum Humidity 58    
Precipitation  
Precipitation 0.00 in - - ()
Sea Level Pressure  
Sea Level Pressure 29.99 in    
Wind  
Wind Speed 10 mph (NNE)    
Max Wind Speed 20 mph    
Max Gust Speed 23 mph    
Visibility 10 miles    
Events Rain    
Averages and records for this station are not official NWS values.
T = Trace of Precipitation, MM = Missing Value Source: NWS Daily Summary

Daily Weather History Graph

Daily Weather History Graph

Search for Another Location

Airport:

Trip Planner

Search our weather history database for the weather conditions in past years. The results will help you decide how hot, cold, wet, or windy it might be!

Date:

Astronomy

Nov. 08, 2013 Rise Set
Actual Time 6:34 AM EST 5:36 PM EST
Civil Twilight 6:10 AM EST 5:59 PM EST
Nautical Twilight 5:43 AM EST 6:27 PM EST
Astronomical Twilight 5:16 AM EST 6:54 PM EST
Moon 11:28 AM EST (11/8) 10:53 PM EST (11/8)
Length of Visible Light 11h 49m
Length of Day
11h 01m
Waxing Crescent, 33% of the Moon is Illuminated
Nov 8
Waxing Crescent
Nov 10
First Quarter
Nov 17
Full
Nov 25
Last Quarter
Dec 2
New

Hourly Weather History & Observations

Time (EST) Temp. Heat Index Dew Point Humidity Pressure Visibility Wind Dir Wind Speed Gust Speed Precip Events Conditions
12:53 AM 73.0 °F - 69.1 °F 87% 29.97 in 10.0 mi North 9.2 mph - N/A   Clear
1:53 AM 73.0 °F - 69.1 °F 87% 29.96 in 10.0 mi North 6.9 mph - N/A   Clear
2:53 AM 71.1 °F - 69.1 °F 93% 29.95 in 10.0 mi North 3.5 mph - N/A   Clear
3:53 AM 71.1 °F - 69.1 °F 93% 29.95 in 10.0 mi North 9.2 mph - N/A   Clear
4:53 AM 71.1 °F - 68.0 °F 90% 29.96 in 10.0 mi North 10.4 mph - N/A   Clear
5:53 AM 70.0 °F - 66.9 °F 90% 29.97 in 10.0 mi North 9.2 mph - N/A   Clear
6:53 AM 71.1 °F - 68.0 °F 90% 29.99 in 10.0 mi North 6.9 mph - N/A   Clear
7:53 AM 73.9 °F - 70.0 °F 87% 30.00 in 10.0 mi North 6.9 mph - N/A   Clear
8:53 AM 80.1 °F 83.6 °F 71.1 °F 74% 30.01 in 10.0 mi NNE 17.3 mph - N/A   Partly Cloudy
9:53 AM 79.0 °F - 71.1 °F 77% 30.03 in 10.0 mi NE 15.0 mph - N/A   Mostly Cloudy
10:53 AM 75.9 °F - 73.0 °F 91% 30.02 in 3.0 mi ENE 12.7 mph - 0.00 in Rain Light Rain
11:53 AM 82.0 °F 86.7 °F 72.0 °F 71% 30.00 in 10.0 mi NE 12.7 mph - 0.00 in   Overcast
12:53 PM 84.0 °F 89.0 °F 71.1 °F 65% 29.97 in 10.0 mi East 19.6 mph - N/A   Overcast
1:53 PM 82.9 °F 85.8 °F 68.0 °F 60% 29.96 in 10.0 mi ENE 13.8 mph 23.0 mph N/A   Overcast
2:53 PM 84.0 °F 87.0 °F 68.0 °F 58% 29.96 in 10.0 mi ENE 13.8 mph - N/A   Overcast
3:53 PM 82.0 °F 84.9 °F 68.0 °F 62% 29.96 in 10.0 mi ENE 16.1 mph - N/A   Mostly Cloudy
4:53 PM 81.0 °F 83.8 °F 68.0 °F 65% 29.98 in 10.0 mi ENE 15.0 mph - N/A   Clear
5:53 PM 80.1 °F 82.9 °F 69.1 °F 69% 29.99 in 10.0 mi ENE 10.4 mph - N/A   Mostly Cloudy
6:53 PM 77.0 °F - 72.0 °F 84% 30.01 in 10.0 mi NNE 10.4 mph - 0.00 in Rain Light Rain
7:19 PM 75.2 °F - 71.6 °F 89% 30.02 in 10.0 mi North 9.2 mph - 0.00 in Rain Light Rain
7:53 PM 75.0 °F - 72.0 °F 90% 30.03 in 10.0 mi North 8.1 mph - 0.00 in   Overcast
8:53 PM 75.0 °F - 72.0 °F 90% 30.03 in 10.0 mi North 5.8 mph - N/A   Overcast
9:53 PM 73.9 °F - 72.0 °F 93% 30.04 in 10.0 mi NNE 6.9 mph - N/A   Clear
10:19 PM 73.4 °F - 71.6 °F 94% 30.04 in 10.0 mi North 8.1 mph - N/A   Partly Cloudy
10:53 PM 75.0 °F - 73.0 °F 94% 30.03 in 10.0 mi NNE 9.2 mph - N/A   Mostly Cloudy
11:53 PM 75.9 °F - 72.0 °F 87% 30.03 in 10.0 mi ENE 10.4 mph - 0.00 in   Overcast